Regional Weather Roundup
Issued by NWS Burlington, VT

Home | Current Version | Previous Version | Text Only | Print | Product List | Glossary On
Versions: 1 2 3 4 5 6 7 8 9 10 11 12 13 14 15 16 17 18 19 20 21 22 23 24 25 26 27 28 29 30 31 32 33 34 35 36 37 38 39 40 41 42 43 44 45 46 47 48 49 50
622
ASUS41 KBTV 300330
RWRBTV
VERMONT REGIONAL WEATHER ROUNDUP
NATIONAL WEATHER SERVICE BURLINGTON VT
1100 PM EDT WED MAR 29 2017

NOTE: "FAIR" INDICATES FEW OR NO CLOUDS BELOW 12,000 FEET WITH NO
SIGNIFICANT WEATHER AND/OR OBSTRUCTIONS TO VISIBILITY.

* THESE REPORTS ARE NOT UNDER NWS QUALITY CONTROL AND/OR DO NOT
  REPORT WEATHER SUCH AS PRECIPITATION AND FOG.

VTZ001>019-300400-
_____VERMONT_____


CITY           SKY/WX    TMP DP  RH WIND       PRES   REMARKS
BURLINGTON     CLOUDY    37  23  56 N12       30.26S WCI  29
MONTPELIER     CLOUDY    33  22  63 N15G22    30.23R WCI  23
MORRISVILLE    CLOUDY    34  21  59 N7        30.24R WCI  28
ST. JOHNSBURY*   N/A     35  22  58 MISG      30.19R
LYNDONVILLE*   CLOUDY    33  21  62 W16       30.20S WCI  22
MIDDLEBURY*    CLOUDY    35  24  62 N9        30.23S WCI  28
RUTLAND*       CLOUDY    33  23  66 NW8       30.21F WCI  26
SPRINGFIELD    CLOUDY    37  20  50 NW5       30.19F
HIGHGATE*      CLOUDY    34  24  67 N7        30.28S WCI  28
NEWPORT*       CLOUDY    32  21  62 N15G21    30.21S WCI  22
BENNINGTON     CLEAR     30  21  69 SW3       30.21S
SUTTON*          N/A     30 N/A N/A MISG        N/A
ISLAND POND*     N/A     32 N/A N/A NW9         N/A  WCI  24
GALLUP MILLS*    N/A     32 N/A N/A MISG        N/A
UNION VILLAGE*   N/A     30 N/A N/A MISG        N/A
MT. MANSFIELD*   N/A     19 N/A N/A NW2         N/A

_____LAKE CHAMPLAIN_____


CITY           SKY/WX    TMP DP  RH WIND       PRES   REMARKS
BURTON ISLAND*   N/A     36  28  75 N7          N/A  WCI  30
COLCHESTER RF*   N/A     37  28  70 N17         N/A  WCI  28
DIAMOND ISL*     N/A     39  23  52 NW10G17     N/A

$$

NYZ007-026>031-035-052-083-087-300400-
_____NORTHERN NEW YORK_____


CITY           SKY/WX    TMP DP  RH WIND       PRES   REMARKS
PLATTSBURGH    CLOUDY    37  22  54 NW13      30.27S WCI  29
SARANAC LAKE   CLOUDY    31  19  61 N9        30.22S WCI  23
MASSENA        CLOUDY    37  22  54 N5        30.33S
POTSDAM*       CLOUDY    34  25  69 NE3       30.29F
STARK FALLS*     N/A     30 N/A N/A N3          N/A
WATERTOWN      CLEAR     29  22  75 NE6       30.30F WCI  23
FT DRUM        PTCLDY    32  21  62 NE7       30.28F WCI  26
ALBANY         PTCLDY    37  20  50 NW12      30.25S WCI  29
GLENS FALLS    CLEAR     35  20  54 N7        30.24S WCI  29

$$
NHZ002-005-011-300400-
_____NEW HAMPSHIRE_____


CITY           SKY/WX    TMP DP  RH WIND       PRES   REMARKS
LEBANON        CLOUDY    37  25  61 N7        30.19F WCI  32
KEENE          CLEAR     28  25  88 S3        30.19F
MT WASHINGTON  SNOWSHWR   9   9 100 NW62G79     N/A  VSB 1/16WCI -21
PLYMOUTH       FAIR      36  24  62 NW15G23   30.16S WCI  27
WHITEFIELD     CLOUDY    34  19  54 NW8       30.17R WCI  27

$$

_____REGIONAL QUEBEC LOCATIONS_____


CITY           SKY/WX    TMP DP  RH WIND       PRES   REMARKS
MONTREAL       CLOUDY    37  19  48 N12G20    30.30R WCI  30
QUEBEC CITY    CLOUDY    32  21  64 NW5       30.22R WCI  27
SHERBROOKE     FLURRIES  32  25  74 NW8G17    30.20S WCI  25

_____REGIONAL ONTARIO LOCATIONS_____


CITY           SKY/WX    TMP DP  RH WIND       PRES   REMARKS
OTTAWA         PTCLDY    34  21  60 NW5       30.31F WCI  30

______KEY______
VSB  - VISIBILITY IN MILES
WCI  - WIND CHILL INDEX
HX   - HEAT INDEX
$$
NNNN




USA.gov is the U.S. government's official web portal to all federal, state and local government web resources and services.